Regional Weather Roundup
Issued by NWS

Home | Current Version | Previous Version | Text Only | Print | Product List | Glossary Off
Versions: 1 2 3 4 5 6 7 8 9 10 11 12 13 14 15 16 17 18 19 20 21 22 23 24 25 26 27 28 29 30 31 32 33 34 35 36 37 38 39 40 41 42 43 44 45 46 47 48 49 50

000
ASUS43 KLOT 061403
RWRIL

ILLINOIS REGIONAL WEATHER ROUNDUP
NATIONAL WEATHER SERVICE CHICAGO/ROMEOVILLE IL
800 AM CST TUE DEC 06 2016

NOTE: "FAIR" INDICATES FEW OR NO CLOUDS BELOW 12,000 FEET WITH NO
SIGNIFICANT WEATHER AND/OR OBSTRUCTIONS TO VISIBILITY.

* THESE STATIONS ARE NOT UNDER NWS QUALITY CONTROL. THEY ALSO MAY NOT
  REPORT WEATHER SUCH AS PRECIPITATION OR FOG.

ILZ001-002-007-009-015-016-024-061500-
NORTHWEST ILLINOIS

CITY           SKY/WX    TMP DP  RH WIND       PRES   REMARKS
MOLINE         FOG       34  32  92 CALM      29.80S VSB 1/4
STERLING*      MIX PCPN  32  32 100 E5        29.80F VSB 1/4 WCI  27
SAVANNA*       FOG       32  32  99 CALM      29.80S VSB 1
$$

ILZ003-004-008-010-011-017-018-061500-
NORTH CENTRAL ILLINOIS

CITY           SKY/WX    TMP DP  RH WIND       PRES   REMARKS
ROCKFORD       FOG       33  32  96 CALM      29.82F VSB 1/8
FREEPORT*      FOG       32  32  99 CALM      29.81F VSB<1/4
ROCHELLE*      FOG       31  31 100 CALM      29.81S VSB<1/4
$$

ILZ005-006-012>014-019>023-061500-
NORTHEAST ILLINOIS

CITY           SKY/WX    TMP DP  RH WIND       PRES   REMARKS
CHICAGO-OHARE  CLOUDY    32  32 100 N5        29.78S FOG     WCI  27
CHICAGO-MIDWAY MOCLDY    32  29  88 NW7       29.78S FOG     WCI  26
AURORA         FOG       27  24  89 NW3       29.79F VSB<1/4
LANSING*       CLOUDY    31  31 100 CALM      29.78R FOG
WAUKEGAN       CLOUDY    34  33  96 CALM      29.78F FOG
DUPAGE AIRPORT FOG       31  30  96 N3        29.77F VSB 1/8
KANKAKEE*      CLOUDY    32  30  94 CALM      29.79R FOG
WHEELING       CLOUDY    33  32  96 N3        29.80S FOG
MORRIS*        CLOUDY    27  26  95 CALM      29.78F FOG
NORTHERLY ISL    N/A     38  33  82 E5          N/A  WCI  34
$$

LMZ740>746-061500-
SOUTHERN LAKE MICHIGAN

STATION/POSITION SKY/WX   TEMP    WIND        PRES    VSBY  WAVE
                          AIR SEA DIR/SP/G                  HT/PER
                          (F)     (DEG/KT/KT) (MB)    (MI)  (FT/S)
HARRISON CRIB              40     110/  8/  9   N/A
BURNHAM HARBOR             38      90/  3/  8   N/A
CALUMET HARBOR             37      80/  3/  4 1008.2R
BURNS HARBOR               33      60/  3/  7 1008.5F
$$

ILZ025>027-034>036-040-047-049-050-058-095>099-061500-
WEST-CENTRAL ILLINOIS

CITY           SKY/WX    TMP DP  RH WIND       PRES   REMARKS
QUINCY         FOG       35  35 100 NW7       29.82R VSB 3/4 WCI  29
GALESBURG*     FOG       33  33 100 CALM      29.80S VSB<1/4
MACOMB*        FOG       35  35 100 NW7       29.83S VSB 1   WCI  29
JACKSONVILLE*  CLOUDY    34  33  96 NW8       29.82R FOG     WCI  27
PITTSFIELD*    CLOUDY    36  34  94 N9G16     29.84R FOG     WCI  29
$$

ILZ028>032-037-038-041>044-048-051>054-059>061-061500-
CENTRAL ILLINOIS

CITY           SKY/WX    TMP DP  RH WIND       PRES   REMARKS
PONTIAC        FOG       32  32 100 N5        29.78F VSB 1   WCI  27
BLOOMINGTON    FOG       31  30  96 N13       29.78R VSB 1/2 WCI  21
DECATUR        CLOUDY    36  34  92 N6        29.77R FOG     WCI  31
PEORIA         FOG       33  33 100 VRB5      29.80S VSB 1/2 WCI  29
LACON*         CLOUDY    32  32 100 CALM      29.80S FOG
LINCOLN*       CLOUDY    34  33  99 NW6       29.80R FOG     WCI  29
SPRINGFIELD    CLOUDY    35  33  92 NW8       29.80S FOG     WCI  29
TAYLORVILLE    CLOUDY    34  33  96 NW6       29.79R FOG     WCI  29
$$

ILZ033-039-045-046-055>057-062-063-061500-
EAST-CENTRAL ILLINOIS

CITY           SKY/WX    TMP DP  RH WIND       PRES   REMARKS
CHAMPAIGN      CLOUDY    36  33  89 NW9       29.75R FOG     WCI  29
RANTOUL*       CLOUDY    35  34  96 NW6       29.75S FOG     WCI  30
MATTOON        CLOUDY    37  34  89 NW10      29.75R FOG     WCI  30
PARIS*         CLOUDY    37  36  94 CALM      29.72S
$$

ILZ079-100>102-061500-
SOUTHWEST ILLINOIS

CITY           SKY/WX    TMP DP  RH WIND       PRES   REMARKS
ALTON          CLOUDY    36  34  93 NW15G21   29.81R FOG     WCI  26
BELLEVILLE     CLOUDY    38  38  99 NW10G18   29.78R WCI  31
CAHOKIA*       CLOUDY    39  34  82 NW14G23   29.81R WCI  31
SPARTA*        CLOUDY    38  37  95 NW7       29.79R FOG     WCI  32
$$

ILZ064>066-069>071-074>076-080>082-084>086-088>090-092>094-061500-
SOUTH-CENTRAL ILLINOIS

CITY           SKY/WX    TMP DP  RH WIND       PRES   REMARKS
CARBONDALE     CLOUDY    39  39 100 NW10      29.77R FOG     WCI  32
CAIRO*         DRIZZLE   40  40  99 NW8       29.75R
EFFINGHAM*     CLOUDY    39  38  97 W8        29.77R WCI  34
MARION         CLOUDY    41  39  93 NW12      29.77R FOG
CENTRALIA*     CLOUDY    40  38  95 NW10      29.76R
SALEM*         CLOUDY    40  37  89 NW9       29.77R FOG
METROPOLIS*    DRIZZLE   41  40  97 NW7       29.74R
$$

ILZ067-068-072-073-078-083-087-091-061500-
SOUTHEAST ILLINOIS

CITY           SKY/WX    TMP DP  RH WIND       PRES   REMARKS
LAWRENCEVILLE  LGT RAIN  40  37  89 NE8       29.71S FOG
FLORA*         CLOUDY    41  39  93 NW10      29.75R FOG
FAIRFIELD*     CLOUDY    39  39  98 NW3       29.72R FOG
HARRISBURG*    LGT RAIN  40  40  99 NW6       29.74R
ROBINSON*      RAIN      38  37  96 NE5       29.72S WCI  34
CARMI*         LGT RAIN  40  40  99 N3        29.70R
$$

ABBREVIATIONS USED IN REMARKS
   TC - TEMPERATURE IN CELSIUS
  WCI - WIND CHILL INDEX
   HX - HEAT INDEX
  VSB - VISIBILITY
$$





USA.gov is the U.S. government's official web portal to all federal, state and local government web resources and services.